EZS59GQ LFKJ-LSGG

Flight info

Callsign EZS59GQ
Flight time 0h 55m
Altitude 28000
Route LONSU M622 PIGOS DCT BARSO DCT IRMAR DCT KINES
Aircraft A320/M-SDE2E3FGHIJ1RWXYZ/LB1

Departure

Time 2026-04-10 13:58
Airport Ajaccio Napoléon Bonaparte airport (LFKJ)

Arrival

Time 2026-04-10 14:53
Airport Geneva International Airport (LSGG)
Time Latitude Longitude Altitude Speed Heading
2026-04-10 13:41 41.91956 8.79576 26 ft 0 kts 345°
2026-04-10 13:54 41.91964 8.79578 30 ft 2 kts 10°
2026-04-10 13:54 41.91969 8.79594 30 ft 2 kts 88°
2026-04-10 13:54 41.91964 8.79606 29 ft 1 kts 118°
2026-04-10 13:54 41.91964 8.79654 28 ft 11 kts 62°
2026-04-10 13:55 41.92052 8.79718 31 ft 18 kts 25°
2026-04-10 13:55 41.92174 8.79787 26 ft 20 kts 22°
2026-04-10 13:55 41.92315 8.79867 31 ft 24 kts 24°
2026-04-10 13:55 41.92474 8.79965 28 ft 27 kts 25°
2026-04-10 13:56 41.92653 8.80078 27 ft 30 kts 24°
2026-04-10 13:56 41.92827 8.80224 27 ft 29 kts 45°
2026-04-10 13:56 41.92953 8.80401 30 ft 20 kts 56°
2026-04-10 13:56 41.92946 8.80535 32 ft 11 kts 112°
2026-04-10 13:57 41.92909 8.80570 31 ft 6 kts 202°
2026-04-10 13:57 41.92772 8.80485 28 ft 57 kts 205°
2026-04-10 13:57 41.92190 8.80123 19 ft 124 kts 205°
2026-04-10 13:57 41.91295 8.79543 377 ft 146 kts 208°
2026-04-10 13:58 41.90480 8.78782 1093 ft 148 kts 236°
2026-04-10 13:58 41.89945 8.77531 1583 ft 165 kts 241°
2026-04-10 13:58 41.89330 8.76093 1969 ft 187 kts 239°
2026-04-10 13:58 41.88639 8.74516 2298 ft 211 kts 240°
2026-04-10 13:59 41.87846 8.72720 2770 ft 236 kts 239°
2026-04-10 13:59 41.86969 8.70744 3373 ft 255 kts 239°
2026-04-10 13:59 41.86050 8.68671 4222 ft 261 kts 242°
2026-04-10 13:59 41.85170 8.66524 5142 ft 263 kts 252°
2026-04-10 14:00 41.84944 8.64117 6021 ft 263 kts 279°
2026-04-10 14:00 41.85602 8.61852 6894 ft 265 kts 307°
2026-04-10 14:00 41.87006 8.60253 7749 ft 270 kts 333°
2026-04-10 14:00 41.88765 8.59322 8631 ft 273 kts 336°
2026-04-10 14:01 41.90511 8.58285 9523 ft 276 kts 333°
2026-04-10 14:01 41.92252 8.57156 10295 ft 284 kts 332°
2026-04-10 14:01 41.94094 8.55935 10595 ft 306 kts 332°
2026-04-10 14:01 41.96041 8.54652 11195 ft 316 kts 332°
2026-04-10 14:02 41.98030 8.53358 11958 ft 320 kts 333°
2026-04-10 14:02 42.00053 8.52059 12736 ft 324 kts 333°
2026-04-10 14:02 42.02101 8.50757 13507 ft 328 kts 333°
2026-04-10 14:02 42.04176 8.49448 14206 ft 331 kts 333°
2026-04-10 14:03 42.06274 8.48126 14882 ft 335 kts 333°
2026-04-10 14:03 42.08394 8.46788 15531 ft 338 kts 333°
2026-04-10 14:03 42.10533 8.45435 16206 ft 341 kts 333°
2026-04-10 14:03 42.12700 8.44111 16888 ft 344 kts 334°
2026-04-10 14:04 42.14901 8.42811 17526 ft 347 kts 334°
2026-04-10 14:04 42.17130 8.41510 18165 ft 351 kts 334°
2026-04-10 14:04 42.19357 8.40215 18731 ft 354 kts 335°
2026-04-10 14:05 42.23909 8.37554 19917 ft 358 kts 335°
2026-04-10 14:05 42.26198 8.36208 20510 ft 360 kts 335°
2026-04-10 14:05 42.28498 8.34852 21109 ft 362 kts 335°
2026-04-10 14:05 42.30812 8.33483 21645 ft 364 kts 335°
2026-04-10 14:06 42.33140 8.32105 22210 ft 366 kts 335°
2026-04-10 14:06 42.35481 8.30716 22757 ft 368 kts 335°
2026-04-10 14:06 42.37834 8.29318 23309 ft 371 kts 335°
2026-04-10 14:06 42.40199 8.27909 23798 ft 372 kts 335°
2026-04-10 14:07 42.42576 8.26492 24240 ft 374 kts 335°
2026-04-10 14:07 42.44965 8.25066 24678 ft 376 kts 335°
2026-04-10 14:07 42.47369 8.23635 25106 ft 378 kts 335°
2026-04-10 14:07 42.49785 8.22200 25536 ft 380 kts 335°
2026-04-10 14:08 42.52211 8.20752 25957 ft 382 kts 335°
2026-04-10 14:08 42.54650 8.19295 26374 ft 384 kts 335°
2026-04-10 14:08 42.57101 8.17829 26786 ft 386 kts 335°
2026-04-10 14:08 42.59563 8.16355 27192 ft 388 kts 335°
2026-04-10 14:09 42.62039 8.14870 27591 ft 390 kts 335°
2026-04-10 14:09 42.64528 8.13375 27926 ft 393 kts 335°
2026-04-10 14:09 42.67023 8.11879 28016 ft 388 kts 335°
2026-04-10 14:09 42.69437 8.10435 28025 ft 371 kts 335°
2026-04-10 14:10 42.71779 8.09031 28026 ft 366 kts 335°
2026-04-10 14:10 42.76414 8.06248 28026 ft 363 kts 335°
2026-04-10 14:11 42.81030 8.03463 28027 ft 362 kts 334°
2026-04-10 14:11 42.85641 8.00677 28027 ft 362 kts 334°
2026-04-10 14:12 42.90221 7.97916 28026 ft 362 kts 335°
2026-04-10 14:12 42.94833 7.95134 28008 ft 363 kts 334°
2026-04-10 14:13 42.99446 7.92332 28019 ft 363 kts 334°
2026-04-10 14:13 43.04052 7.89523 28018 ft 363 kts 334°
2026-04-10 14:14 43.08660 7.86718 28016 ft 362 kts 334°
2026-04-10 14:14 43.13268 7.83913 28012 ft 362 kts 334°
2026-04-10 14:15 43.17873 7.81107 28027 ft 362 kts 334°
2026-04-10 14:15 43.22472 7.78292 28022 ft 362 kts 334°
2026-04-10 14:16 43.27065 7.75477 28021 ft 362 kts 334°
2026-04-10 14:16 43.31659 7.72663 28018 ft 361 kts 334°
2026-04-10 14:17 43.35503 7.70301 28016 ft 361 kts 334°
2026-04-10 14:17 43.40088 7.67480 28019 ft 361 kts 334°
2026-04-10 14:18 43.44674 7.64653 28018 ft 361 kts 334°
2026-04-10 14:18 43.49250 7.61826 28015 ft 361 kts 334°
2026-04-10 14:19 43.53796 7.59011 28014 ft 361 kts 334°
2026-04-10 14:19 43.56086 7.57594 28000 ft 361 kts 334°
2026-04-10 14:19 43.58390 7.56167 28028 ft 368 kts 333°
2026-04-10 14:19 43.60764 7.54696 28032 ft 381 kts 333°
2026-04-10 14:20 43.63223 7.53171 28033 ft 394 kts 333°
2026-04-10 14:20 43.65759 7.51596 28028 ft 405 kts 333°
2026-04-10 14:20 43.68363 7.49975 28029 ft 416 kts 333°
2026-04-10 14:21 43.73745 7.46625 28027 ft 429 kts 334°
2026-04-10 14:21 43.79209 7.43217 28039 ft 432 kts 334°
2026-04-10 14:22 43.84740 7.39756 28027 ft 441 kts 333°
2026-04-10 14:22 43.90354 7.36240 28026 ft 443 kts 333°
2026-04-10 14:23 43.95972 7.32714 28024 ft 443 kts 333°
2026-04-10 14:23 44.01584 7.29176 28030 ft 443 kts 333°
2026-04-10 14:24 44.07337 7.26130 28025 ft 445 kts 341°
2026-04-10 14:24 44.13256 7.23788 28014 ft 445 kts 341°
2026-04-10 14:25 44.19215 7.21440 28003 ft 445 kts 341°
2026-04-10 14:25 44.25179 7.19090 28010 ft 445 kts 341°
2026-04-10 14:26 44.31139 7.16726 28006 ft 445 kts 341°
2026-04-10 14:26 44.37100 7.14363 28009 ft 445 kts 341°
2026-04-10 14:27 44.43060 7.11993 28029 ft 446 kts 341°
2026-04-10 14:27 44.49025 7.09617 28032 ft 445 kts 341°
2026-04-10 14:28 44.54969 7.07238 28026 ft 444 kts 341°
2026-04-10 14:28 44.60912 7.04857 28019 ft 444 kts 341°
2026-04-10 14:29 44.66851 7.02474 28018 ft 444 kts 341°
2026-04-10 14:29 44.72786 7.00090 28015 ft 443 kts 341°
2026-04-10 14:30 44.78715 6.97704 28040 ft 443 kts 341°
2026-04-10 14:30 44.84635 6.95316 28037 ft 443 kts 341°
2026-04-10 14:31 44.90551 6.92914 28038 ft 442 kts 340°
2026-04-10 14:31 44.96424 6.90530 28043 ft 442 kts 340°
2026-04-10 14:32 45.02329 6.88129 28063 ft 442 kts 340°
2026-04-10 14:32 45.08246 6.85722 28059 ft 442 kts 340°
2026-04-10 14:33 45.14169 6.83309 28052 ft 443 kts 340°
2026-04-10 14:33 45.20091 6.80886 28078 ft 443 kts 340°
2026-04-10 14:34 45.26020 6.78457 28078 ft 444 kts 340°
2026-04-10 14:34 45.31945 6.76017 28087 ft 443 kts 340°
2026-04-10 14:35 45.38010 6.74248 27907 ft 445 kts 347°
2026-04-10 14:35 45.41050 6.73608 27390 ft 435 kts 348°
2026-04-10 14:35 45.43996 6.73091 27077 ft 421 kts 349°
2026-04-10 14:35 45.46883 6.72619 26532 ft 414 kts 349°
2026-04-10 14:36 45.49728 6.72143 25930 ft 409 kts 348°
2026-04-10 14:36 45.52538 6.71651 25317 ft 405 kts 348°
2026-04-10 14:36 45.55319 6.71141 24711 ft 401 kts 348°
2026-04-10 14:36 45.58075 6.70619 24155 ft 398 kts 348°
2026-04-10 14:37 45.60794 6.70094 23614 ft 392 kts 348°
2026-04-10 14:37 45.63481 6.69572 23014 ft 386 kts 347°
2026-04-10 14:37 45.66118 6.69063 22614 ft 378 kts 347°
2026-04-10 14:37 45.68694 6.68573 22241 ft 370 kts 347°
2026-04-10 14:38 45.71232 6.68091 21749 ft 366 kts 347°
2026-04-10 14:38 45.73746 6.67614 21204 ft 362 kts 348°
2026-04-10 14:38 45.76242 6.67139 20630 ft 362 kts 348°
2026-04-10 14:38 45.78740 6.66662 20116 ft 361 kts 348°
2026-04-10 14:39 45.81220 6.66188 19620 ft 359 kts 348°
2026-04-10 14:39 45.83656 6.65722 19142 ft 357 kts 348°
2026-04-10 14:39 45.86148 6.65242 18653 ft 356 kts 348°
2026-04-10 14:39 45.88599 6.64770 18162 ft 355 kts 348°
2026-04-10 14:40 45.91008 6.64310 17633 ft 353 kts 348°
2026-04-10 14:40 45.93441 6.63845 17109 ft 351 kts 348°
2026-04-10 14:40 45.95850 6.63386 16664 ft 348 kts 348°
2026-04-10 14:40 45.98240 6.62931 16206 ft 345 kts 348°
2026-04-10 14:41 46.00610 6.62476 15761 ft 343 kts 348°
2026-04-10 14:41 46.02967 6.62021 15326 ft 341 kts 348°
2026-04-10 14:41 46.05308 6.61570 14914 ft 338 kts 348°
2026-04-10 14:41 46.07631 6.61122 14459 ft 336 kts 348°
2026-04-10 14:42 46.09942 6.60674 14021 ft 334 kts 348°
2026-04-10 14:42 46.12240 6.60231 13556 ft 332 kts 349°
2026-04-10 14:42 46.14530 6.59791 13157 ft 331 kts 349°
2026-04-10 14:42 46.16809 6.59352 12638 ft 330 kts 349°
2026-04-10 14:43 46.19078 6.58913 12092 ft 328 kts 348°
2026-04-10 14:43 46.21350 6.58472 11533 ft 330 kts 349°
2026-04-10 14:43 46.23623 6.58029 11035 ft 329 kts 349°
2026-04-10 14:43 46.25888 6.57587 10568 ft 326 kts 350°
2026-04-10 14:44 46.28088 6.57164 10458 ft 313 kts 349°
2026-04-10 14:44 46.30211 6.56754 10328 ft 303 kts 349°
2026-04-10 14:44 46.32267 6.56354 10181 ft 294 kts 349°
2026-04-10 14:44 46.34280 6.55962 9836 ft 291 kts 349°
2026-04-10 14:45 46.36282 6.55574 9481 ft 289 kts 349°
2026-04-10 14:45 46.38266 6.55148 9163 ft 285 kts 343°
2026-04-10 14:45 46.40048 6.54102 9034 ft 270 kts 325°
2026-04-10 14:45 46.41459 6.52434 8903 ft 256 kts 313°
2026-04-10 14:46 46.42709 6.50668 8756 ft 246 kts 313°
2026-04-10 14:46 46.43921 6.48963 8587 ft 238 kts 313°
2026-04-10 14:46 46.45027 6.47257 8407 ft 228 kts 300°
2026-04-10 14:46 46.45542 6.45153 8121 ft 221 kts 272°
2026-04-10 14:47 46.45284 6.42995 7833 ft 217 kts 245°
2026-04-10 14:47 46.44384 6.41257 7334 ft 218 kts 228°
2026-04-10 14:47 46.43304 6.39675 6772 ft 223 kts 227°
2026-04-10 14:47 46.42205 6.38061 6217 ft 226 kts 228°
2026-04-10 14:48 46.41113 6.36445 5845 ft 221 kts 229°
2026-04-10 14:48 46.40056 6.34879 5532 ft 214 kts 228°
2026-04-10 14:48 46.39038 6.33370 5248 ft 206 kts 227°
2026-04-10 14:48 46.38058 6.31918 4996 ft 198 kts 227°
2026-04-10 14:49 46.37107 6.30510 4728 ft 193 kts 228°
2026-04-10 14:49 46.36187 6.29148 4464 ft 190 kts 227°
2026-04-10 14:49 46.35270 6.27792 4218 ft 187 kts 228°
2026-04-10 14:49 46.34370 6.26462 3967 ft 184 kts 228°
2026-04-10 14:50 46.33485 6.25156 3732 ft 180 kts 227°
2026-04-10 14:50 46.32618 6.23875 3502 ft 177 kts 226°
2026-04-10 14:50 46.31764 6.22615 3265 ft 174 kts 228°
2026-04-10 14:50 46.30921 6.21371 3043 ft 173 kts 228°
2026-04-10 14:51 46.30081 6.20132 2806 ft 171 kts 226°
2026-04-10 14:51 46.29273 6.18942 2614 ft 159 kts 227°
2026-04-10 14:51 46.28519 6.17831 2389 ft 151 kts 226°
2026-04-10 14:51 46.27792 6.16761 2185 ft 148 kts 228°
2026-04-10 14:52 46.27078 6.15709 1990 ft 147 kts 229°
2026-04-10 14:52 46.26371 6.14670 1791 ft 143 kts 229°
2026-04-10 14:52 46.25668 6.13641 1606 ft 144 kts 228°
2026-04-10 14:52 46.24968 6.12607 1415 ft 144 kts 229°
2026-04-10 14:53 46.24322 6.11653 1373 ft 114 kts 226°
2026-04-10 14:53 46.23892 6.11021 1379 ft 57 kts 225°
2026-04-10 14:53 46.23642 6.10748 1378 ft 34 kts 198°
2026-04-10 14:53 46.23463 6.10675 1390 ft 16 kts 198°
2026-04-10 14:54 46.23370 6.10599 1393 ft 16 kts 222°
2026-04-10 14:54 46.23287 6.10479 1400 ft 17 kts 226°
2026-04-10 14:54 46.23212 6.10367 1401 ft 11 kts 225°
2026-04-10 14:54 46.23141 6.10385 1398 ft 14 kts 135°
2026-04-10 14:55 46.23078 6.10475 1397 ft 8 kts 132°
2026-04-10 14:55 46.23053 6.10539 1401 ft 4 kts 134°
2026-04-10 14:55 46.23034 6.10567 1396 ft 2 kts 136°
2026-04-10 14:55 46.23031 6.10571 1396 ft 0 kts 135°